Home   Weather   USA   Placerville   Past weeks
Flag for USA

Past Weather in Placerville, California, USA — Yesterday and Last 2 Weeks

Currently: 72 °F. Sunny. (Weather station: Placerville Airport, USA). See more current weather

Past Weather in Placerville — Graph

°F

Placerville Temperature Yesterday

Maximum temperature yesterday: 73 °F (at 12:15 pm)
Minimum temperature yesterday: 55 °F (at 4:35 am)
Average temperature yesterday: 64 °F

High & Low Weather Summary for the Past Weeks

 TemperatureHumidityPressure
High75 °F (Apr 11, 2:15 pm)100% (Apr 13, 9:15 am)30.25 "Hg (Apr 13, 9:15 am)
Low36 °F (Apr 13, 11:35 am)23% (Apr 9, 2:15 am)29.72 "Hg (Apr 12, 6:35 am)
Average56 °F58%30.06 "Hg
* Reported Apr 6 6:15 pm — Apr 21 6:15 pm, Placerville. Weather by CustomWeather, © 2024

Note: Actual official high and low records may vary slightly from our data, if they occured in-between our weather recording intervals... More about our weather records

Placerville Weather History for the Previous 24 Hours

Scroll right to see more
 ConditionsComfort  
Time TempWeatherWind HumidityBarometerVisibility
6:15 pm
Sun, Apr 21
73 °FSunny.3 mph41%30.01 "Hg10 mi
5:55 pm73 °FSunny.5 mph41%30.01 "Hg10 mi
5:15 pm75 °FSunny.7 mph39%30.02 "Hg10 mi
4:55 pm75 °FSunny.5 mph39%30.02 "Hg10 mi
4:35 pm75 °FSunny.7 mph36%30.02 "Hg10 mi
3:55 pm75 °FSunny.8 mph41%30.03 "Hg10 mi
3:35 pm75 °FSunny.7 mph39%30.04 "Hg10 mi
3:15 pm75 °FSunny.8 mph39%30.05 "Hg10 mi
2:55 pm75 °FSunny.9 mph39%30.06 "Hg10 mi
2:35 pm75 °FSunny.6 mph41%30.06 "Hg10 mi
2:15 pm73 °FSunny.6 mph41%30.07 "Hg10 mi
1:55 pm73 °FSunny.7 mph41%30.07 "Hg10 mi
1:35 pm73 °FSunny.8 mph38%30.08 "Hg10 mi
12:55 pm73 °FSunny.5 mph33%30.09 "Hg10 mi
12:15 pm72 °FSunny.8 mph31%30.10 "Hg10 mi
11:55 am72 °FSunny.5 mph31%30.11 "Hg10 mi
11:35 am72 °FSunny.3 mph31%30.12 "Hg10 mi
11:15 am72 °FSunny.5 mph31%30.12 "Hg10 mi
10:55 am72 °FSunny.5 mph33%30.12 "Hg10 mi
10:35 am72 °FSunny.No wind29%30.12 "Hg10 mi
10:15 am70 °FSunny.No wind29%30.12 "Hg10 mi
9:55 am68 °FSunny.No wind33%30.12 "Hg10 mi
9:15 am66 °FSunny.No wind32%30.12 "Hg10 mi
8:55 am66 °FSunny.No wind35%30.12 "Hg10 mi
8:15 am63 °FSunny.No wind37%30.12 "Hg10 mi
7:55 am63 °FSunny.No wind32%30.11 "Hg10 mi
7:15 am59 °FSunny.6 mph36%30.10 "Hg10 mi
6:35 am57 °FSunny.9 mph36%30.10 "Hg10 mi
6:15 am57 °FClear.13 mph39%30.09 "Hg10 mi
5:55 am57 °FClear.13 mph39%30.09 "Hg10 mi
5:15 am59 °FClear.10 mph36%30.09 "Hg10 mi
4:55 am57 °FClear.12 mph39%30.10 "Hg10 mi
4:35 am59 °FClear.10 mph36%30.10 "Hg10 mi
3:55 am59 °FClear.7 mph42%30.10 "Hg10 mi
3:35 am59 °FClear.7 mph42%30.10 "Hg10 mi
3:15 am59 °FClear.10 mph42%30.10 "Hg10 mi
2:55 am59 °FClear.10 mph45%30.10 "Hg10 mi
2:35 am59 °FClear.10 mph45%30.11 "Hg10 mi
2:15 am59 °FClear.10 mph48%30.11 "Hg10 mi
1:35 am59 °FClear.9 mph51%30.12 "Hg10 mi
12:55 am59 °FClear.10 mph51%30.12 "Hg10 mi
12:15 am61 °FClear.9 mph55%30.13 "Hg10 mi
11:55 pm
Sat, Apr 20
63 °FClear.7 mph52%30.13 "Hg10 mi
11:35 pm63 °FClear.8 mph56%30.13 "Hg10 mi
11:15 pm63 °FClear.8 mph56%30.13 "Hg10 mi
10:55 pm63 °FClear.7 mph56%30.13 "Hg10 mi
10:35 pm63 °FClear.7 mph59%30.13 "Hg10 mi
10:15 pm64 °FClear.No wind52%30.13 "Hg10 mi
9:55 pm63 °FClear.No wind56%30.13 "Hg10 mi
9:35 pm64 °FClear.No wind52%30.13 "Hg10 mi
9:15 pm64 °FClear.No wind52%30.13 "Hg10 mi
8:55 pm64 °FClear.No wind52%30.12 "Hg10 mi
8:15 pm64 °FClear.No wind49%30.10 "Hg10 mi
7:55 pm66 °FClear.No wind46%30.10 "Hg10 mi
7:35 pm66 °FSunny.3 mph43%30.10 "Hg10 mi
Weather by CustomWeather, © 2024

See weather overview